Regional Weather Roundup
Issued by NWS

Home | Current Version | Previous Version | Text Only | Print | Product List | Glossary Off
Versions: 1 2 3 4 5 6 7 8 9 10 11 12 13 14 15 16 17 18 19 20 21 22 23 24 25 26 27 28 29 30 31 32 33 34 35 36 37 38 39 40 41 42 43 44 45 46 47 48 49 50

000
ASUS45 KTFX 020419
RWRMT
MONTANA REGIONAL WEATHER ROUNDUP
NATIONAL WEATHER SERVICE GREAT FALLS MT
1000 PM MDT TUE SEP 01 2015

NOTE: "FAIR" INDICATES FEW OR NO CLOUDS BELOW 12000 FEET WITH NO
SIGNIFICANT WEATHER AND/OR OBSTRUCTIONS TO VISIBILITY.

MTZ001>007-043-020500-
WEST OF THE DIVIDE

CITY           SKY/WX    TMP DP  RH WIND       PRES   REMARKS
KALISPELL      MOCLDY    59  36  42 CALM      29.76R
MISSOULA       CLEAR     64  37  36 N9        29.77R
BUTTE          PTCLDY    64  35  34 CALM      29.89R
MULLAN PASS    CLOUDY    54  29  38 VRB7      29.91F
DEER LODGE       N/A     63  34  34 CALM      29.88R
EUREKA           N/A     61  43  51 CALM      29.75F
HAMILTON         N/A     61  45  55 S3        29.78R
LIBBY            N/A     63  36  36 S3        29.75S
PLAINS           N/A     63  32  31 CALM      29.79R
RONAN            N/A     60  38  44 CALM      29.84S
$$

MTZ008-052>055-020500-
SOUTHWEST MONTANA

CITY           SKY/WX    TMP DP  RH WIND       PRES   REMARKS
BOZEMAN        MOCLDY    66  37  34 SE10      29.82S
DILLON         MOCLDY    67  29  24 S9        29.85R
W YELLOWSTONE  CLEAR     54  27  35 NE3       30.05S
THREE FORKS      N/A     64  23  21 CALM      29.83S
TWIN BRIDGES     N/A     70  31  23 SE5       29.85R
$$

MTZ009-010-012-014-046-048-049-054-020500-
EAST SLOPES AND CENTRAL MONTANA

CITY           SKY/WX    TMP DP  RH WIND       PRES   REMARKS
CUT BANK       MOCLDY    62  31  31 NW10      29.77S
GREAT FALLS    CLEAR     64  30  27 E6        29.77S
MALMSTROM AFB  PTCLDY    61  32  34 S9        29.77S
HELENA         PTCLDY    69  35  28 W8        29.79R
CONRAD           N/A     58  35  42 SE3       29.82F
$$

MTZ011-013-016-021-045-047-050-051-020500-
NORTH CENTRAL MONTANA

CITY           SKY/WX    TMP DP  RH WIND       PRES   REMARKS
HAVRE          CLEAR     57  36  45 S6        29.73R
LEWISTOWN      CLOUDY    67  39  35 SE10      29.84S
N BAR RANCH      N/A     55  41  58 W6        29.91R
CHINOOK          N/A     63  39  42 CALM      29.73S
FORT BENTON      N/A     70  30  23 SE5       29.75S
$$

MTZ017>020-022>027-061-062-020500-
NORTHEAST MONTANA

CITY           SKY/WX    TMP DP  RH WIND       PRES   REMARKS
GLASGOW        CLEAR     69  41  36 NE12      29.77R
JORDAN           N/A     67  33  28 NE3       29.78S
SIDNEY         CLEAR     63  39  42 NW3       29.79S
WOLF POINT     CLEAR     63  44  50 E6        29.77R
MALTA            N/A     59  37  43 CALM      29.74F
PLENTYWOOD       N/A     70  41  35 NE8       29.80S
POPLAR           N/A     66  41  39 N5        29.77F
SCOBEY           N/A     56  38  50 CALM      29.81R
$$

MTZ028>42-056>058-020500-
SOUTHCENTRAL AND SOUTHEAST MONTANA

CITY           SKY/WX    TMP DP  RH WIND       PRES   REMARKS
BAKER          CLEAR     65  45  48 SE5       29.84R
BILLINGS       CLEAR     78  28  16 SE10      29.80S
LIVINGSTON     CLEAR     67  28  23 SW3       29.86R
MILES CITY     CLEAR     71  35  26 NE6       29.78R
EKALAKA          N/A     75  38  26 SE6       29.86S
FORSYTH          N/A     73  34  23 E3        29.77S
LAUREL           N/A     72  31  22 N2        29.81S
ROUNDUP          N/A     72  32  23 MISG      29.76R
$$

REGIONAL REPORTS...DAKOTAS

CITY           SKY/WX    TMP DP  RH WIND       PRES   REMARKS
WILLISTON      CLEAR     71  38  29 N6        29.80R
MINOT          CLEAR     70  58  65 SE6       29.77S
DICKINSON      CLEAR     66  56  70 SE9       29.81R
BEACH            N/A     59  46  63 SE5       29.84S
CROSBY           N/A     61  48  63 NW3       29.81R
BISMARCK       CLEAR     75  70  84 SE8       29.80R
GRAND FORKS    CLEAR     69  56  62 SE6       29.83S
FARGO          PTCLDY    76  69  79 SE8       29.83F
BUFFALO SD       N/A     72  54  53 SE9       29.80R
RAPID CITY     CLEAR     63  55  75 NW7       29.88R
$$

REGIONAL REPORTS...WYOMING/IDAHO/WASHINGTON

CITY           SKY/WX    TMP DP  RH WIND       PRES   REMARKS
GILLETTE       CLEAR     62  36  37 SW6       29.91R
SHERIDAN       CLEAR     63  43  48 CALM      29.85R
BUFFALO WY     PTCLDY    72  29  20 W8        29.95R
CODY           CLEAR     73  30  20 SW7       29.93S
YELLOWSTONE LA   N/A     48  30  49 NW3       30.18S
IDAHO FALLS    CLEAR     62  40  44 CALM      29.91S
SALMON         PTCLDY    70  30  23 SE6       29.80R
BOISE          CLEAR     74  40  29 SE5       29.75S
SPOKANE        CLOUDY    66  44  45 SW5       29.76R
$$

REGIONAL REPORTS...ALBERTA

CITY           SKY/WX    TMP DP  RH WIND       PRES   REMARKS
EDMONTON       LGT RAIN  54  37  54 SE8       29.68R
CALGARY        MOCLDY    64  36  34 VRB2      29.67S
LETHBRIDGE     PTCLDY    54  36  50 W9        29.73S
MEDICINE HAT   CLEAR     61  41  48 S2        29.70S
WATERTON GATE    N/A     50  37  62 NE3         N/A
CARDSTON         N/A     59  36  41 SW5         N/A
MILK RIVER       N/A     64  32  29 W10         N/A
$$

REGIONAL REPORTS...SASKATCHEWAN

CITY           SKY/WX    TMP DP  RH WIND       PRES   REMARKS
SWIFT CURRENT  CLEAR     57  37  47 S7        29.75S
REGINA         PTCLDY    63  48  59 SE8       29.77R
SASKATOON      PTCLDY    57  41  54 E5        29.75R
CYPRESS HILLS    N/A     57  27  30 S1          N/A
VAL MARIE        N/A     48  34  57 NE1         N/A
ROCKGLEN         N/A     63  41  45 S6          N/A
ASSINIBOIA       N/A     52  43  71 N7          N/A
$$



USA.gov is the U.S. government's official web portal to all federal, state and local government web resources and services.